UTA6126 ULAM-UWUU

Flight info

Callsign UTA6126
Flight time 2h 17m
Altitude 33000
Route NIKDI1C NIKDI T765 UHT T173 DEGEB DEGEB3T
Aircraft B735/M-SDFHIW/S

Departure

Time 2026-05-06 11:12
Airport Naryan Mar Airport (ULAM)

Arrival

Time 2026-05-06 13:30
Airport Ufa International Airport (UWUU)
Time Latitude Longitude Altitude Speed Heading
2026-05-06 11:12 67.35358 53.18955 9438 ft 294 kts 179°
2026-05-06 11:12 67.33322 53.19224 10375 ft 294 kts 179°
2026-05-06 11:12 67.31272 53.19511 11311 ft 294 kts 179°
2026-05-06 11:13 67.29225 53.19804 12193 ft 295 kts 180°
2026-05-06 11:13 67.27177 53.20070 13029 ft 296 kts 181°
2026-05-06 11:13 67.25113 53.20346 13820 ft 299 kts 181°
2026-05-06 11:13 67.23026 53.20637 14594 ft 302 kts 181°
2026-05-06 11:14 67.20881 53.20967 15042 ft 317 kts 181°
2026-05-06 11:14 67.18640 53.21344 15706 ft 323 kts 181°
2026-05-06 11:14 67.16392 53.21736 16494 ft 325 kts 182°
2026-05-06 11:14 67.14127 53.22124 17234 ft 329 kts 182°
2026-05-06 11:15 67.11832 53.22510 17988 ft 331 kts 183°
2026-05-06 11:15 67.09529 53.22903 18758 ft 333 kts 184°
2026-05-06 11:15 67.07204 53.23287 19435 ft 337 kts 184°
2026-05-06 11:15 67.04856 53.23679 20113 ft 340 kts 184°
2026-05-06 11:16 67.02514 53.24074 20762 ft 343 kts 184°
2026-05-06 11:16 67.00129 53.24477 21416 ft 345 kts 185°
2026-05-06 11:16 66.97727 53.24881 22056 ft 347 kts 185°
2026-05-06 11:16 66.95301 53.25291 22638 ft 351 kts 185°
2026-05-06 11:17 66.92863 53.25700 23216 ft 353 kts 186°
2026-05-06 11:17 66.90397 53.26110 23795 ft 356 kts 186°
2026-05-06 11:17 66.87918 53.26523 24350 ft 359 kts 186°
2026-05-06 11:17 66.85422 53.26943 24887 ft 361 kts 186°
2026-05-06 11:18 66.82901 53.27363 25406 ft 364 kts 186°
2026-05-06 11:18 66.80366 53.27794 25948 ft 365 kts 186°
2026-05-06 11:18 66.77827 53.28223 26482 ft 366 kts 187°
2026-05-06 11:18 66.75279 53.28661 27006 ft 368 kts 187°
2026-05-06 11:19 66.72722 53.29096 27514 ft 369 kts 187°
2026-05-06 11:19 66.70138 53.29511 27912 ft 374 kts 187°
2026-05-06 11:19 66.67530 53.29912 28341 ft 377 kts 187°
2026-05-06 11:19 66.64876 53.30338 28483 ft 389 kts 187°
2026-05-06 11:20 66.62146 53.30801 28789 ft 395 kts 187°
2026-05-06 11:20 66.59400 53.31268 29314 ft 395 kts 187°
2026-05-06 11:20 66.56657 53.31730 29762 ft 397 kts 187°
2026-05-06 11:20 66.53894 53.32186 30208 ft 399 kts 187°
2026-05-06 11:21 66.51118 53.32644 30764 ft 398 kts 187°
2026-05-06 11:21 66.48355 53.33109 31252 ft 398 kts 186°
2026-05-06 11:21 66.45587 53.33565 31650 ft 400 kts 186°
2026-05-06 11:21 66.42807 53.34031 32072 ft 401 kts 186°
2026-05-06 11:22 66.40021 53.34493 32348 ft 403 kts 186°
2026-05-06 11:22 66.37229 53.34958 32580 ft 401 kts 186°
2026-05-06 11:22 66.34440 53.35417 32672 ft 405 kts 186°
2026-05-06 11:23 66.28698 53.36311 32666 ft 419 kts 185°
2026-05-06 11:23 66.22889 53.37273 32660 ft 417 kts 185°
2026-05-06 11:24 66.17176 53.38232 32661 ft 413 kts 186°
2026-05-06 11:24 66.11439 53.39149 32664 ft 414 kts 186°
2026-05-06 11:25 66.05681 53.40078 32663 ft 414 kts 186°
2026-05-06 11:25 65.99926 53.41024 32661 ft 415 kts 186°
2026-05-06 11:26 65.94182 53.42005 32659 ft 412 kts 186°
2026-05-06 11:26 65.88460 53.42987 32665 ft 412 kts 186°
2026-05-06 11:27 65.82740 53.43942 32660 ft 412 kts 186°
2026-05-06 11:27 65.77005 53.44892 32661 ft 413 kts 186°
2026-05-06 11:28 65.71272 53.45876 32663 ft 412 kts 186°
2026-05-06 11:28 65.65554 53.46846 32661 ft 412 kts 186°
2026-05-06 11:29 65.59822 53.47810 32664 ft 414 kts 186°
2026-05-06 11:29 65.54072 53.48749 32661 ft 414 kts 186°
2026-05-06 11:30 65.48331 53.49698 32663 ft 414 kts 186°
2026-05-06 11:30 65.42584 53.50624 32663 ft 414 kts 186°
2026-05-06 11:31 65.36833 53.51544 32663 ft 414 kts 186°
2026-05-06 11:31 65.31085 53.52466 32662 ft 414 kts 185°
2026-05-06 11:32 65.25362 53.53395 32663 ft 414 kts 186°
2026-05-06 11:32 65.19571 53.54299 32662 ft 415 kts 185°
2026-05-06 11:33 65.13811 53.55219 32671 ft 415 kts 185°
2026-05-06 11:33 65.08049 53.56133 32661 ft 415 kts 185°
2026-05-06 11:34 65.02324 53.57035 32661 ft 415 kts 185°
2026-05-06 11:34 64.96560 53.57945 32663 ft 416 kts 185°
2026-05-06 11:35 64.90773 53.58850 32662 ft 417 kts 185°
2026-05-06 11:35 64.84988 53.59767 32673 ft 417 kts 185°
2026-05-06 11:36 64.79207 53.60676 32672 ft 417 kts 185°
2026-05-06 11:36 64.73424 53.61581 32671 ft 417 kts 185°
2026-05-06 11:37 64.67623 53.62474 32672 ft 418 kts 185°
2026-05-06 11:37 64.61818 53.63376 32671 ft 418 kts 185°
2026-05-06 11:38 64.56019 53.64279 32671 ft 418 kts 185°
2026-05-06 11:38 64.50219 53.65193 32672 ft 418 kts 184°
2026-05-06 11:39 64.44408 53.66064 32670 ft 417 kts 185°
2026-05-06 11:39 64.38614 53.66976 32672 ft 418 kts 184°
2026-05-06 11:40 64.32813 53.67892 32671 ft 418 kts 184°
2026-05-06 11:40 64.26999 53.68771 32668 ft 418 kts 184°
2026-05-06 11:41 64.21176 53.69650 32672 ft 420 kts 184°
2026-05-06 11:41 64.15343 53.70513 32671 ft 420 kts 184°
2026-05-06 11:42 64.10498 53.71260 32671 ft 419 kts 184°
2026-05-06 11:42 64.03693 53.72289 32672 ft 419 kts 184°
2026-05-06 11:43 63.97873 53.73160 32671 ft 420 kts 184°
2026-05-06 11:43 63.93025 53.73874 32671 ft 420 kts 184°
2026-05-06 11:44 63.83341 53.75313 32671 ft 420 kts 184°
2026-05-06 11:44 63.77479 53.76217 32672 ft 420 kts 184°
2026-05-06 11:45 63.71640 53.77075 32670 ft 420 kts 184°
2026-05-06 11:45 63.65816 53.77934 32670 ft 419 kts 184°
2026-05-06 11:46 63.60973 53.78637 32671 ft 420 kts 184°
2026-05-06 11:46 63.55147 53.79313 32677 ft 418 kts 187°
2026-05-06 11:47 63.48419 53.78945 32680 ft 414 kts 190°
2026-05-06 11:47 63.42664 53.78422 32679 ft 415 kts 189°
2026-05-06 11:48 63.37813 53.78102 32683 ft 417 kts 189°
2026-05-06 11:48 63.32017 53.77735 32677 ft 417 kts 189°
2026-05-06 11:49 63.26218 53.77330 32682 ft 417 kts 189°
2026-05-06 11:49 63.20415 53.76940 32667 ft 418 kts 189°
2026-05-06 11:50 63.14597 53.76554 32663 ft 418 kts 189°
2026-05-06 11:50 63.08787 53.76162 32661 ft 418 kts 189°
2026-05-06 11:51 63.03016 53.75779 32661 ft 418 kts 190°
2026-05-06 11:51 62.97183 53.75385 32661 ft 420 kts 189°
2026-05-06 11:52 62.91352 53.74992 32661 ft 420 kts 189°
2026-05-06 11:52 62.85506 53.74750 32657 ft 423 kts 186°
2026-05-06 11:53 62.79580 53.76396 32664 ft 434 kts 177°
2026-05-06 11:53 62.73654 53.79039 32661 ft 435 kts 177°
2026-05-06 11:54 62.67715 53.81399 32661 ft 433 kts 178°
2026-05-06 11:54 62.61773 53.83635 32661 ft 434 kts 178°
2026-05-06 11:55 62.55815 53.85929 32661 ft 435 kts 178°
2026-05-06 11:55 62.49848 53.88231 32662 ft 436 kts 178°
2026-05-06 11:56 62.43878 53.90526 32660 ft 436 kts 178°
2026-05-06 11:56 62.37889 53.92768 32662 ft 435 kts 180°
2026-05-06 11:57 62.31908 53.94330 32660 ft 431 kts 182°
2026-05-06 11:57 62.25940 53.95566 32663 ft 432 kts 182°
2026-05-06 11:58 62.19947 53.96889 32662 ft 434 kts 182°
2026-05-06 11:58 62.13986 53.98251 32663 ft 434 kts 182°
2026-05-06 11:59 62.07983 53.99606 32663 ft 433 kts 182°
2026-05-06 11:59 62.01995 54.00948 32661 ft 433 kts 182°
2026-05-06 12:00 61.96006 54.02285 32662 ft 432 kts 182°
2026-05-06 12:00 61.90021 54.03617 32663 ft 433 kts 182°
2026-05-06 12:01 61.84029 54.04908 32662 ft 433 kts 182°
2026-05-06 12:01 61.78033 54.06170 32662 ft 432 kts 182°
2026-05-06 12:02 61.72042 54.07433 32667 ft 433 kts 182°
2026-05-06 12:02 61.66048 54.08731 32672 ft 434 kts 182°
2026-05-06 12:03 61.60033 54.10015 32670 ft 435 kts 182°
2026-05-06 12:03 61.54021 54.11283 32670 ft 434 kts 182°
2026-05-06 12:04 61.48005 54.12537 32675 ft 435 kts 182°
2026-05-06 12:04 61.41970 54.13810 32679 ft 436 kts 182°
2026-05-06 12:05 61.35919 54.15100 32683 ft 441 kts 182°
2026-05-06 12:05 61.29772 54.16381 32676 ft 444 kts 182°
2026-05-06 12:06 61.23666 54.17677 32681 ft 439 kts 182°
2026-05-06 12:06 61.17582 54.18935 32685 ft 441 kts 182°
2026-05-06 12:07 61.11500 54.20203 32690 ft 442 kts 182°
2026-05-06 12:07 61.05383 54.21494 32690 ft 441 kts 182°
2026-05-06 12:08 60.99273 54.22758 32692 ft 442 kts 182°
2026-05-06 12:08 60.93154 54.24027 32690 ft 442 kts 182°
2026-05-06 12:09 60.87017 54.25317 32699 ft 443 kts 182°
2026-05-06 12:09 60.80876 54.26571 32697 ft 444 kts 182°
2026-05-06 12:10 60.74738 54.27829 32696 ft 442 kts 182°
2026-05-06 12:10 60.68611 54.29104 32708 ft 444 kts 182°
2026-05-06 12:11 60.62463 54.30368 32713 ft 444 kts 182°
2026-05-06 12:11 60.56314 54.31630 32708 ft 444 kts 182°
2026-05-06 12:12 60.50156 54.32889 32718 ft 445 kts 182°
2026-05-06 12:12 60.44028 54.33319 32711 ft 435 kts 193°
2026-05-06 12:13 60.38148 54.31332 32716 ft 427 kts 200°
2026-05-06 12:13 60.32297 54.29001 32732 ft 430 kts 198°
2026-05-06 12:14 60.26383 54.27053 32729 ft 431 kts 197°
2026-05-06 12:14 60.20464 54.25135 32721 ft 430 kts 197°
2026-05-06 12:15 60.14554 54.23182 32737 ft 431 kts 197°
2026-05-06 12:15 60.08621 54.21286 32737 ft 432 kts 197°
2026-05-06 12:16 60.02689 54.19403 32736 ft 431 kts 197°
2026-05-06 12:16 59.96768 54.17511 32738 ft 430 kts 197°
2026-05-06 12:17 59.90849 54.15617 32746 ft 432 kts 197°
2026-05-06 12:17 59.84908 54.13752 32746 ft 432 kts 197°
2026-05-06 12:18 59.78962 54.11920 32748 ft 432 kts 197°
2026-05-06 12:18 59.73038 54.10038 32759 ft 429 kts 197°
2026-05-06 12:19 59.67077 54.08138 32748 ft 433 kts 198°
2026-05-06 12:19 59.61111 54.06329 32756 ft 434 kts 196°
2026-05-06 12:20 59.55196 54.04512 32759 ft 433 kts 197°
2026-05-06 12:20 59.49250 54.02638 32756 ft 433 kts 197°
2026-05-06 12:21 59.43296 54.00794 32757 ft 434 kts 196°
2026-05-06 12:21 59.37318 53.98943 32755 ft 435 kts 196°
2026-05-06 12:22 59.31349 53.97138 32754 ft 433 kts 196°
2026-05-06 12:22 59.25386 53.95321 32765 ft 435 kts 195°
2026-05-06 12:23 59.19315 53.94156 32766 ft 442 kts 189°
2026-05-06 12:23 59.13138 53.94027 32762 ft 445 kts 187°
2026-05-06 12:24 59.06963 53.93872 32764 ft 443 kts 188°
2026-05-06 12:24 59.00790 53.93573 32767 ft 444 kts 188°
2026-05-06 12:25 58.94594 53.93280 32767 ft 446 kts 187°
2026-05-06 12:25 58.88397 53.93010 32774 ft 446 kts 187°
2026-05-06 12:26 58.82178 53.92728 32772 ft 447 kts 187°
2026-05-06 12:26 58.75964 53.92459 32777 ft 447 kts 187°
2026-05-06 12:27 58.69735 53.92189 32776 ft 448 kts 187°
2026-05-06 12:27 58.63491 53.91933 32773 ft 449 kts 187°
2026-05-06 12:28 58.57277 53.91647 32772 ft 449 kts 186°
2026-05-06 12:28 58.51023 53.91363 32774 ft 450 kts 186°
2026-05-06 12:29 58.44735 53.91649 32774 ft 455 kts 180°
2026-05-06 12:29 58.38428 53.92929 32782 ft 457 kts 178°
2026-05-06 12:30 58.32108 53.94249 32782 ft 456 kts 179°
2026-05-06 12:30 58.25785 53.95457 32784 ft 457 kts 178°
2026-05-06 12:31 58.19458 53.96679 32783 ft 457 kts 179°
2026-05-06 12:31 58.14202 53.97669 32782 ft 457 kts 179°
2026-05-06 12:32 58.06806 53.99091 32782 ft 457 kts 178°
2026-05-06 12:32 58.00491 54.00317 32785 ft 457 kts 179°
2026-05-06 12:33 57.94167 54.01499 32804 ft 457 kts 179°
2026-05-06 12:33 57.87841 54.02685 32803 ft 457 kts 179°
2026-05-06 12:34 57.81500 54.03887 32802 ft 458 kts 179°
2026-05-06 12:34 57.76240 54.04864 32801 ft 457 kts 179°
2026-05-06 12:35 57.69920 54.06066 32801 ft 456 kts 178°
2026-05-06 12:35 57.63608 54.07246 32803 ft 455 kts 179°
2026-05-06 12:36 57.57297 54.08428 32801 ft 455 kts 178°
2026-05-06 12:36 57.51012 54.09613 32811 ft 454 kts 178°
2026-05-06 12:37 57.44726 54.10779 32811 ft 454 kts 178°
2026-05-06 12:37 57.38429 54.11949 32810 ft 454 kts 178°
2026-05-06 12:38 57.32153 54.13098 32811 ft 452 kts 178°
2026-05-06 12:38 57.25903 54.14230 32811 ft 451 kts 178°
2026-05-06 12:39 57.19698 54.15385 32822 ft 451 kts 178°
2026-05-06 12:39 57.13464 54.16541 32822 ft 450 kts 178°
2026-05-06 12:40 57.07237 54.17688 32819 ft 449 kts 178°
2026-05-06 12:40 57.01029 54.18797 32820 ft 447 kts 178°
2026-05-06 12:41 56.94846 54.19898 32835 ft 447 kts 178°
2026-05-06 12:41 56.88649 54.21031 32834 ft 447 kts 178°
2026-05-06 12:42 56.82460 54.22140 32828 ft 446 kts 178°
2026-05-06 12:42 56.76289 54.23220 32829 ft 445 kts 178°
2026-05-06 12:43 56.70134 54.24322 32837 ft 444 kts 178°
2026-05-06 12:43 56.63994 54.25409 32844 ft 444 kts 177°
2026-05-06 12:44 56.57835 54.26508 32841 ft 444 kts 178°
2026-05-06 12:44 56.51690 54.27585 32846 ft 444 kts 177°
2026-05-06 12:45 56.45552 54.28663 32846 ft 443 kts 177°
2026-05-06 12:46 56.36354 54.30271 32850 ft 443 kts 177°
2026-05-06 12:46 56.30261 54.31334 32851 ft 443 kts 178°
2026-05-06 12:47 56.24147 54.32370 32858 ft 442 kts 177°
2026-05-06 12:47 56.18017 54.33459 32858 ft 442 kts 177°
2026-05-06 12:48 56.11903 54.34531 32857 ft 441 kts 176°
2026-05-06 12:48 56.05883 54.36800 32861 ft 446 kts 164°
2026-05-06 12:49 56.00058 54.40733 32868 ft 448 kts 161°
2026-05-06 12:49 55.94217 54.44599 32864 ft 446 kts 163°
2026-05-06 12:50 55.88373 54.48195 32858 ft 444 kts 163°
2026-05-06 12:50 55.82533 54.51816 32858 ft 445 kts 163°
2026-05-06 12:51 55.76691 54.55464 32857 ft 445 kts 163°
2026-05-06 12:51 55.70856 54.59114 32867 ft 444 kts 163°
2026-05-06 12:52 55.65018 54.62734 32864 ft 444 kts 163°
2026-05-06 12:52 55.59191 54.66350 32867 ft 444 kts 163°
2026-05-06 12:53 55.53378 54.69954 32873 ft 444 kts 163°
2026-05-06 12:53 55.47560 54.73563 32866 ft 437 kts 163°
2026-05-06 12:53 55.44740 54.75309 32856 ft 425 kts 163°
2026-05-06 12:54 55.41991 54.77050 32860 ft 414 kts 161°
2026-05-06 12:54 55.36914 54.81940 32638 ft 423 kts 146°
2026-05-06 12:54 55.34579 54.85128 31755 ft 428 kts 142°
2026-05-06 12:55 55.32264 54.88482 30814 ft 433 kts 142°
2026-05-06 12:55 55.29907 54.91784 29890 ft 435 kts 144°
2026-05-06 12:55 55.27498 54.95004 28994 ft 435 kts 144°
2026-05-06 12:56 55.20179 55.04568 26415 ft 430 kts 143°
2026-05-06 12:56 55.17829 55.07677 25588 ft 422 kts 143°
2026-05-06 12:56 55.15535 55.10708 24784 ft 413 kts 143°
2026-05-06 12:57 55.13260 55.13708 23956 ft 405 kts 143°
2026-05-06 12:57 55.11034 55.16633 23170 ft 397 kts 143°
2026-05-06 12:57 55.08997 55.19306 22468 ft 390 kts 143°
2026-05-06 12:57 55.06820 55.22163 21721 ft 382 kts 143°
2026-05-06 12:58 55.04737 55.24952 20953 ft 374 kts 139°
2026-05-06 12:58 55.03058 55.28365 19920 ft 374 kts 120°
2026-05-06 12:58 55.02179 55.32576 19154 ft 366 kts 99°
2026-05-06 12:58 55.02188 55.36930 18379 ft 359 kts 79°
2026-05-06 12:59 55.03054 55.40961 17496 ft 354 kts 58°
2026-05-06 12:59 55.04673 55.44146 16669 ft 350 kts 37°
2026-05-06 12:59 55.06745 55.46041 15861 ft 347 kts 17°
2026-05-06 12:59 55.09111 55.46526 15019 ft 344 kts 355°
2026-05-06 13:00 55.11406 55.45497 14216 ft 339 kts 336°
2026-05-06 13:00 55.13348 55.43245 13389 ft 336 kts 315°
2026-05-06 13:00 55.14641 55.39965 12601 ft 331 kts 292°
2026-05-06 13:00 55.15126 55.36092 11778 ft 327 kts 270°
2026-05-06 13:01 55.14721 55.32233 10986 ft 322 kts 247°
2026-05-06 13:01 55.13519 55.28984 10215 ft 318 kts 226°
2026-05-06 13:01 55.11763 55.26725 9487 ft 313 kts 208°
2026-05-06 13:01 55.09759 55.25296 8708 ft 311 kts 195°
2026-05-06 13:02 55.07628 55.24810 7931 ft 308 kts 179°
2026-05-06 13:02 55.05528 55.25410 7206 ft 305 kts 162°
2026-05-06 13:02 55.03623 55.26935 6508 ft 301 kts 149°
2026-05-06 13:02 55.01925 55.28968 6082 ft 289 kts 144°
2026-05-06 13:03 55.00370 55.31057 5832 ft 280 kts 143°
2026-05-06 13:03 54.98850 55.33103 5457 ft 271 kts 143°
2026-05-06 13:03 54.97380 55.35057 5077 ft 262 kts 143°
2026-05-06 13:03 54.95945 55.36938 4673 ft 255 kts 144°
2026-05-06 13:04 54.94547 55.38767 4289 ft 248 kts 144°
2026-05-06 13:04 54.93183 55.40562 3905 ft 242 kts 144°
2026-05-06 13:04 54.91860 55.42309 3519 ft 236 kts 144°
2026-05-06 13:04 54.90558 55.44004 3135 ft 233 kts 144°
2026-05-06 13:05 54.89268 55.45684 2744 ft 229 kts 144°
2026-05-06 13:05 54.88004 55.47334 2385 ft 226 kts 144°
2026-05-06 13:05 54.86751 55.48977 2120 ft 224 kts 143°
2026-05-06 13:05 54.85539 55.50557 1953 ft 211 kts 144°
2026-05-06 13:06 54.84417 55.52023 1878 ft 196 kts 143°
2026-05-06 13:06 54.83319 55.53463 1991 ft 201 kts 143°
2026-05-06 13:06 54.82276 55.54829 2046 ft 197 kts 144°
2026-05-06 13:06 54.81236 55.56178 1962 ft 196 kts 144°
2026-05-06 13:07 54.80106 55.57652 1941 ft 194 kts 143°
2026-05-06 13:07 54.79014 55.59080 1962 ft 196 kts 143°
2026-05-06 13:07 54.77929 55.60492 1950 ft 195 kts 143°
2026-05-06 13:07 54.76844 55.61909 1958 ft 196 kts 143°
2026-05-06 13:08 54.75757 55.63328 1968 ft 196 kts 144°
2026-05-06 13:08 54.74664 55.64744 1960 ft 196 kts 143°
2026-05-06 13:08 54.73599 55.66130 1961 ft 197 kts 143°
2026-05-06 13:08 54.72498 55.67567 1960 ft 197 kts 143°
2026-05-06 13:09 54.71398 55.68973 1968 ft 196 kts 143°
2026-05-06 13:09 54.70314 55.70376 1959 ft 197 kts 143°
2026-05-06 13:09 54.69224 55.71805 1959 ft 197 kts 139°
2026-05-06 13:09 54.68137 55.73246 1961 ft 195 kts 144°
2026-05-06 13:10 54.67049 55.74659 2060 ft 195 kts 143°
2026-05-06 13:10 54.65990 55.76005 1965 ft 181 kts 145°
2026-05-06 13:10 54.64988 55.77136 1867 ft 163 kts 147°
2026-05-06 13:10 54.64092 55.78101 1853 ft 139 kts 148°
2026-05-06 13:11 54.63292 55.78955 1920 ft 139 kts 144°
2026-05-06 13:11 54.62486 55.79891 1714 ft 138 kts 147°
2026-05-06 13:11 54.61673 55.80742 1415 ft 132 kts 152°
2026-05-06 13:11 54.60839 55.81528 1257 ft 138 kts 150°
2026-05-06 13:12 54.60025 55.82390 999 ft 134 kts 148°
2026-05-06 13:12 54.59180 55.83131 838 ft 137 kts 150°
2026-05-06 13:12 54.58358 55.83942 679 ft 136 kts 150°
2026-05-06 13:12 54.57524 55.84747 532 ft 140 kts 150°
2026-05-06 13:13 54.56699 55.85542 463 ft 131 kts 150°
2026-05-06 13:13 54.55863 55.86318 704 ft 137 kts 150°
2026-05-06 13:13 54.54999 55.87157 1041 ft 154 kts 150°
2026-05-06 13:13 54.53899 55.87971 1510 ft 192 kts 172°
2026-05-06 13:14 54.52669 55.87302 2733 ft 181 kts 223°
2026-05-06 13:14 54.52013 55.85468 3691 ft 191 kts 233°
2026-05-06 13:14 54.51496 55.83441 4153 ft 183 kts 257°
2026-05-06 13:14 54.50922 55.81583 4369 ft 176 kts 214°
2026-05-06 13:15 54.49839 55.80710 4495 ft 171 kts 200°
2026-05-06 13:15 54.48760 55.79761 4660 ft 182 kts 207°
2026-05-06 13:15 54.47615 55.78564 4881 ft 204 kts 211°
2026-05-06 13:15 54.46375 55.77164 5010 ft 227 kts 212°
2026-05-06 13:16 54.45030 55.75566 4950 ft 243 kts 213°
2026-05-06 13:16 54.43660 55.73921 4912 ft 237 kts 213°
2026-05-06 13:16 54.42284 55.72290 4883 ft 242 kts 213°
2026-05-06 13:16 54.40930 55.70609 4946 ft 242 kts 216°
2026-05-06 13:17 54.39622 55.68634 5032 ft 261 kts 225°
2026-05-06 13:17 54.38487 55.66114 5036 ft 274 kts 238°
2026-05-06 13:17 54.37734 55.63071 5009 ft 279 kts 254°
2026-05-06 13:17 54.37486 55.59773 4967 ft 280 kts 270°
2026-05-06 13:18 54.37624 55.57527 4969 ft 279 kts 281°
2026-05-06 13:18 54.38254 55.54387 4982 ft 280 kts 297°
2026-05-06 13:18 54.39344 55.51628 4998 ft 280 kts 312°
2026-05-06 13:18 54.40818 55.49452 4983 ft 280 kts 327°
2026-05-06 13:19 54.42489 55.47744 4988 ft 280 kts 330°
2026-05-06 13:19 54.44157 55.46039 4989 ft 278 kts 328°
2026-05-06 13:19 54.45757 55.44249 4998 ft 279 kts 326°
2026-05-06 13:19 54.47361 55.42371 4987 ft 280 kts 326°
2026-05-06 13:20 54.48964 55.40466 4975 ft 279 kts 325°
2026-05-06 13:20 54.50557 55.38574 4975 ft 279 kts 326°
2026-05-06 13:20 54.52138 55.36719 4986 ft 279 kts 327°
2026-05-06 13:20 54.53775 55.35069 4979 ft 279 kts 335°
2026-05-06 13:21 54.55589 55.33919 4901 ft 280 kts 347°
2026-05-06 13:21 54.57521 55.33535 4661 ft 279 kts
2026-05-06 13:21 54.59412 55.34050 4410 ft 273 kts 18°
2026-05-06 13:21 54.61116 55.35338 4150 ft 265 kts 32°
2026-05-06 13:22 54.62563 55.37234 3890 ft 258 kts 44°
2026-05-06 13:22 54.63786 55.39428 3629 ft 251 kts 50°
2026-05-06 13:22 54.64903 55.41698 3342 ft 247 kts 52°
2026-05-06 13:22 54.65989 55.43946 3014 ft 246 kts 51°
2026-05-06 13:23 54.67088 55.46209 2681 ft 246 kts 52°
2026-05-06 13:23 54.68183 55.48465 2373 ft 244 kts 51°
2026-05-06 13:23 54.69230 55.50731 2114 ft 241 kts 55°
2026-05-06 13:23 54.70127 55.53175 1994 ft 240 kts 64°
2026-05-06 13:24 54.70759 55.55843 1972 ft 241 kts 75°
2026-05-06 13:24 54.71068 55.58671 1966 ft 238 kts 87°
2026-05-06 13:24 54.71033 55.61437 2046 ft 221 kts 97°
2026-05-06 13:24 54.70780 55.63992 1963 ft 211 kts 103°
2026-05-06 13:25 54.70422 55.66372 1912 ft 198 kts 109°
2026-05-06 13:25 54.69946 55.68519 1909 ft 184 kts 116°
2026-05-06 13:25 54.69373 55.70396 1886 ft 169 kts 120°
2026-05-06 13:25 54.68794 55.72021 1898 ft 150 kts 125°
2026-05-06 13:26 54.68334 55.73177 1976 ft 140 kts 120°
2026-05-06 13:26 54.67838 55.74669 2212 ft 149 kts 135°
2026-05-06 13:26 54.66942 55.75643 2158 ft 154 kts 153°
2026-05-06 13:26 54.66011 55.76497 1974 ft 146 kts 152°
2026-05-06 13:27 54.65154 55.77299 1873 ft 136 kts 151°
2026-05-06 13:27 54.64343 55.78093 1921 ft 133 kts 150°
2026-05-06 13:27 54.63522 55.78898 1946 ft 138 kts 150°
2026-05-06 13:27 54.62699 55.79714 1713 ft 136 kts 149°
2026-05-06 13:28 54.61887 55.80504 1478 ft 133 kts 149°
2026-05-06 13:28 54.61076 55.81298 1342 ft 135 kts 151°
2026-05-06 13:28 54.60257 55.82086 1134 ft 135 kts 150°
2026-05-06 13:28 54.59445 55.82871 887 ft 133 kts 150°
2026-05-06 13:29 54.58638 55.83663 730 ft 133 kts 148°
2026-05-06 13:29 54.57841 55.84429 579 ft 132 kts 150°
2026-05-06 13:29 54.57049 55.85196 454 ft 128 kts 150°
2026-05-06 13:29 54.56401 55.85817 451 ft 79 kts 150°
2026-05-06 13:30 54.56054 55.86151 453 ft 42 kts 150°
2026-05-06 13:30 54.55881 55.86319 449 ft 19 kts 148°
2026-05-06 13:30 54.55844 55.86396 451 ft 5 kts 90°
2026-05-06 13:30 54.55859 55.86453 451 ft 6 kts 59°
2026-05-06 13:31 54.55881 55.86519 449 ft 7 kts 60°
2026-05-06 13:31 54.55906 55.86596 448 ft 7 kts 62°
2026-05-06 13:31 54.55929 55.86670 450 ft 7 kts 59°
2026-05-06 13:31 54.55955 55.86743 450 ft 7 kts 59°
2026-05-06 13:32 54.55980 55.86818 450 ft 7 kts 59°
2026-05-06 13:32 54.56006 55.86894 450 ft 7 kts 59°
2026-05-06 13:32 54.56024 55.86956 450 ft 6 kts 64°
2026-05-06 13:32 54.56045 55.87020 450 ft 7 kts 60°
2026-05-06 13:33 54.56068 55.87091 450 ft 7 kts 61°
2026-05-06 13:33 54.56092 55.87163 450 ft 7 kts 61°
2026-05-06 13:33 54.56116 55.87237 450 ft 7 kts 61°
2026-05-06 13:33 54.56141 55.87312 450 ft 7 kts 60°
2026-05-06 13:34 54.56163 55.87379 450 ft 7 kts 60°
2026-05-06 13:34 54.56189 55.87456 450 ft 7 kts 60°
2026-05-06 13:34 54.56213 55.87531 450 ft 7 kts 61°
2026-05-06 13:34 54.56237 55.87606 450 ft 7 kts 61°
2026-05-06 13:35 54.56261 55.87681 450 ft 7 kts 60°
2026-05-06 13:35 54.56284 55.87749 450 ft 6 kts 60°
2026-05-06 13:35 54.56302 55.87802 451 ft 6 kts 60°
2026-05-06 13:35 54.56323 55.87866 449 ft 7 kts 60°
2026-05-06 13:36 54.56350 55.87946 450 ft 8 kts 60°
2026-05-06 13:36 54.56375 55.88025 450 ft 7 kts 60°
2026-05-06 13:36 54.56400 55.88102 450 ft 7 kts 60°
2026-05-06 13:36 54.56434 55.88160 450 ft 7 kts 23°
2026-05-06 13:37 54.56476 55.88151 450 ft 6 kts 338°
2026-05-06 13:37 54.56504 55.88146 450 ft 5 kts
2026-05-06 13:37 54.56531 55.88185 450 ft 6 kts 59°
2026-05-06 13:37 54.56551 55.88246 450 ft 6 kts 60°
2026-05-06 13:38 54.56556 55.88262 450 ft 0 kts 60°